When you browse on this site, cookies collect data to enhance your experience and personalize the content and advertising you see.
Visit our Privacy Policy to learn more. By continuing to use the site, you agree to this use of cookies and data.
EN

Hourly Weather Shrewsbury

Today, 20 September, Sunday

Time Temperature Precipitation Wind Pressure Humidity
00:00 +9°C° 0 mm 3 mps 760 mmHg 95%
01:00 +9°C° 0 mm 3 mps 760 mmHg 96%
02:00 +9°C° 0 mm 3 mps 760 mmHg 96%
03:00 +9°C° 0 mm 2 mps 760 mmHg 97%
04:00 +10°C° 0 mm 3 mps 760 mmHg 95%
05:00 +10°C° 0 mm 3 mps 760 mmHg 94%
06:00 +11°C° 0 mm 4 mps 760 mmHg 92%
07:00 +12°C° 0 mm 4 mps 760 mmHg 90%
08:00 +13°C° 0 mm 4 mps 760 mmHg 87%
09:00 +13°C° 0 mm 4 mps 760 mmHg 85%
10:00 +14°C° 0 mm 4 mps 760 mmHg 82%
11:00 +15°C° 0 mm 4 mps 760 mmHg 79%
12:00 +17°C° 0 mm 4 mps 760 mmHg 76%
13:00 +17°C° 0 mm 3 mps 759 mmHg 75%
14:00 +18°C° 0 mm 3 mps 759 mmHg 74%
15:00 +19°C° 0 mm 3 mps 759 mmHg 72%
16:00 +17°C° 0 mm 3 mps 759 mmHg 78%
17:00 +16°C° 0 mm 3 mps 759 mmHg 83%
18:00 +15°C° 0 mm 2 mps 759 mmHg 88%
19:00 +14°C° 0 mm 2 mps 759 mmHg 90%
20:00 +13°C° 0 mm 2 mps 759 mmHg 93%
21:00 +12°C° 0 mm 2 mps 759 mmHg 95%
22:00 +10°C° 0 mm 2 mps 759 mmHg 96%
23:00 +11°C° 0 mm 1 mps 759 mmHg 97%

Tomorrow, 21 September, Monday

Time Temperature Precipitation Wind Pressure Humidity
00:00 +10°C° 0 mm 1 mps 759 mmHg 98%
01:00 +10°C° 0 mm 1 mps 759 mmHg 98%
02:00 +10°C° 0 mm 1 mps 758 mmHg 98%
03:00 +10°C° 0 mm 1 mps 758 mmHg 98%
04:00 +10°C° 0 mm 0 mps 758 mmHg 97%
05:00 +10°C° 0 mm 0 mps 758 mmHg 97%
06:00 +10°C° 0 mm 0 mps 758 mmHg 97%
07:00 +11°C° 0 mm 0 mps 758 mmHg 94%
08:00 +12°C° 0 mm 0 mps 758 mmHg 90%
09:00 +14°C° 0 mm 0 mps 758 mmHg 87%
10:00 +15°C° 0 mm 0 mps 757 mmHg 82%
11:00 +17°C° 0 mm 0 mps 757 mmHg 76%
12:00 +19°C° 0 mm 0 mps 757 mmHg 70%
13:00 +20°C° 0 mm 0 mps 757 mmHg 69%
14:00 +22°C° 0 mm 1 mps 756 mmHg 68%
15:00 +23°C° 0 mm 1 mps 756 mmHg 66%
16:00 +22°C° 0 mm 1 mps 755 mmHg 73%
17:00 +20°C° 0 mm 1 mps 755 mmHg 80%
18:00 +18°C° 0 mm 1 mps 755 mmHg 87%
19:00 +16°C° 0 mm 1 mps 755 mmHg 88%
20:00 +15°C° 0 mm 1 mps 755 mmHg 90%
21:00 +13°C° 0 mm 0 mps 755 mmHg 91%
22:00 +13°C° 0 mm 0 mps 755 mmHg 92%
23:00 +13°C° 0 mm 0 mps 754 mmHg 92%

Day after tomorrow, 22 September, Tuesday

Time Temperature Precipitation Wind Pressure Humidity
00:00 +13°C° 0 mm 1 mps 754 mmHg 93%
01:00 +13°C° 0 mm 1 mps 753 mmHg 93%
02:00 +13°C° 0 mm 1 mps 752 mmHg 93%
03:00 +13°C° 0 mm 1 mps 752 mmHg 94%
04:00 +13°C° 0 mm 2 mps 751 mmHg 94%
05:00 +13°C° 0 mm 2 mps 751 mmHg 94%
06:00 +13°C° 0 mm 2 mps 751 mmHg 94%
07:00 +14°C° 0 mm 3 mps 750 mmHg 90%
08:00 +17°C° 0 mm 3 mps 750 mmHg 86%
09:00 +18°C° 0 mm 3 mps 749 mmHg 82%
10:00 +19°C° 0 mm 4 mps 749 mmHg 79%
11:00 +20°C° 0 mm 4 mps 749 mmHg 76%
12:00 +21°C° 0 mm 5 mps 748 mmHg 73%
13:00 +20°C° 0.1 mm 5 mps 748 mmHg 75%
14:00 +20°C° 0.1 mm 5 mps 747 mmHg 76%
15:00 +19°C° 0.1 mm 5 mps 747 mmHg 78%
16:00 +18°C° 0 mm 4 mps 746 mmHg 80%
17:00 +17°C° 0 mm 4 mps 746 mmHg 82%
18:00 +16°C° 0 mm 3 mps 746 mmHg 84%
19:00 +16°C° 0 mm 3 mps 746 mmHg 84%
20:00 +14°C° 0 mm 3 mps 745 mmHg 84%
21:00 +14°C° 0 mm 3 mps 745 mmHg 85%
22:00 +13°C° 0 mm 3 mps 745 mmHg 88%
23:00 +12°C° 0 mm 3 mps 745 mmHg 90%

23 September, Wednesday

Time Temperature Precipitation Wind Pressure Humidity
00:00 +11°C° 0 mm 3 mps 745 mmHg 93%
01:00 +12°C° 0.4 mm 2 mps 744 mmHg 94%
02:00 +12°C° 0.4 mm 2 mps 744 mmHg 94%
03:00 +12°C° 0.4 mm 2 mps 744 mmHg 95%
04:00 +12°C° 3 mm 2 mps 743 mmHg 95%
05:00 +11°C° 3 mm 3 mps 743 mmHg 95%
06:00 +10°C° 3 mm 3 mps 743 mmHg 95%
07:00 +11°C° 0.7 mm 3 mps 743 mmHg 94%
08:00 +12°C° 0.7 mm 2 mps 742 mmHg 93%
09:00 +12°C° 0.7 mm 2 mps 742 mmHg 92%
10:00 +12°C° 1.1 mm 2 mps 742 mmHg 93%
11:00 +10°C° 1.1 mm 3 mps 742 mmHg 94%
12:00 +10°C° 1.1 mm 3 mps 741 mmHg 95%
13:00 +10°C° 0.5 mm 3 mps 741 mmHg 93%
14:00 +11°C° 0.5 mm 3 mps 741 mmHg 91%
15:00 +11°C° 0.5 mm 3 mps 741 mmHg 90%
16:00 +10°C° 1 mm 3 mps 740 mmHg 90%
17:00 +9°C° 1 mm 3 mps 740 mmHg 90%
18:00 +8°C° 1 mm 4 mps 740 mmHg 90%
19:00 +7°C° 0 mm 4 mps 740 mmHg 90%
20:00 +6°C° 0 mm 4 mps 741 mmHg 90%
21:00 +5°C° 0 mm 4 mps 741 mmHg 89%
22:00 +5°C° 0 mm 4 mps 741 mmHg 90%
23:00 +5°C° 0 mm 3 mps 741 mmHg 91%

24 September, Thursday

Time Temperature Precipitation Wind Pressure Humidity
00:00 +5°C° 0 mm 3 mps 741 mmHg 91%
01:00 +5°C° 0 mm 3 mps 741 mmHg 92%
02:00 +6°C° 0 mm 2 mps 740 mmHg 93%
03:00 +6°C° 0 mm 2 mps 740 mmHg 93%
04:00 +6°C° 0.4 mm 2 mps 739 mmHg 94%
05:00 +7°C° 0.4 mm 3 mps 738 mmHg 94%
06:00 +7°C° 0.4 mm 3 mps 738 mmHg 95%
07:00 +7°C° 0.5 mm 4 mps 738 mmHg 92%
08:00 +8°C° 0.5 mm 4 mps 737 mmHg 88%
09:00 +8°C° 0.5 mm 4 mps 737 mmHg 85%
10:00 +10°C° 0.5 mm 4 mps 737 mmHg 81%
11:00 +11°C° 0.5 mm 4 mps 737 mmHg 76%
12:00 +12°C° 0.5 mm 4 mps 737 mmHg 72%
13:00 +12°C° 0.6 mm 3 mps 737 mmHg 72%
14:00 +12°C° 0.6 mm 3 mps 738 mmHg 72%
15:00 +13°C° 0.6 mm 2 mps 738 mmHg 72%
16:00 +11°C° 0.7 mm 3 mps 738 mmHg 77%
17:00 +9°C° 0.7 mm 3 mps 739 mmHg 82%
18:00 +7°C° 0.7 mm 4 mps 739 mmHg 87%
19:00 +6°C° 0 mm 4 mps 740 mmHg 88%
20:00 +5°C° 0 mm 4 mps 741 mmHg 90%
21:00 +4°C° 0 mm 4 mps 742 mmHg 91%
22:00 +4°C° 0 mm 4 mps 743 mmHg 90%
23:00 +4°C° 0 mm 4 mps 744 mmHg 88%

25 September, Friday

Time Temperature Precipitation Wind Pressure Humidity
00:00 +4°C° 0 mm 4 mps 744 mmHg 87%
01:00 +4°C° 0 mm 4 mps 745 mmHg 87%
02:00 +4°C° 0 mm 4 mps 745 mmHg 87%
03:00 +4°C° 0 mm 4 mps 746 mmHg 88%
04:00 +4°C° 0 mm 3 mps 746 mmHg 88%
05:00 +4°C° 0 mm 3 mps 747 mmHg 88%
06:00 +3°C° 0 mm 3 mps 747 mmHg 89%
07:00 +5°C° 0 mm 3 mps 748 mmHg 84%
08:00 +7°C° 0 mm 4 mps 749 mmHg 79%
09:00 +8°C° 0 mm 5 mps 749 mmHg 74%
10:00 +9°C° 0 mm 5 mps 749 mmHg 69%
11:00 +10°C° 0 mm 5 mps 750 mmHg 64%
12:00 +12°C° 0 mm 5 mps 750 mmHg 59%
13:00 +12°C° 0.1 mm 5 mps 750 mmHg 60%
14:00 +12°C° 0.1 mm 5 mps 750 mmHg 60%
15:00 +12°C° 0.1 mm 5 mps 751 mmHg 61%
16:00 +10°C° 0 mm 4 mps 751 mmHg 67%
17:00 +9°C° 0 mm 3 mps 751 mmHg 73%
18:00 +7°C° 0 mm 2 mps 751 mmHg 79%
19:00 +7°C° 0 mm 2 mps 751 mmHg 81%
20:00 +6°C° 0 mm 2 mps 751 mmHg 84%
21:00 +6°C° 0 mm 1 mps 751 mmHg 86%
22:00 +6°C° 0 mm 1 mps 751 mmHg 87%
23:00 +5°C° 0 mm 1 mps 751 mmHg 88%
Show more